TAPIOLA Weather Reports


time (UTC)temp
C
wind
direction
speed
KPH
gust
KPH
rain 1hr
cm
rain 24hr
cm
rain mn
cm
humidity
%
barometer
mb
20260507054723 7 48 6.4 12.9 0.00 0.00 0.00 38 1015.6
20260507052724 7 49 9.7 19.3 0.00 0.00 0.00 38 1015.6
20260507050723 6 53 11.3 19.3 0.00 0.00 0.00 44 1015.6
20260507044723 6 43 12.9 20.9 0.00 0.00 0.00 43 1015.6
20260507042723 5 35 12.9 20.9 0.00 0.00 0.00 47 1015.7
20260507040724 3 28 9.7 17.7 0.00 0.00 0.00 52 1015.7
20260507034723 1 29 9.7 16.1 0.00 0.00 0.00 62 1015.6
20260507030723 0 23 9.7 14.5 0.00 0.00 0.00 77 1015.4
20260507024723 0 18 8.0 11.3 0.00 0.00 0.00 73 1015.4
20260507022723 0 21 9.7 12.9 0.00 0.00 0.00 74 1015.4
20260507020723 0 20 8.0 9.7 0.00 0.00 0.00 76 1015.5
20260507014723 0 28 9.7 12.9 0.00 0.00 0.00 72 1015.3
20260507012722 0 31 11.3 16.1 0.00 0.00 0.00 66 1015.3
20260507010723 0 27 12.9 16.1 0.00 0.00 0.00 69 1015.3
20260507004722 1 22 11.3 17.7 0.00 0.00 0.00 61 1015.2
20260507002723 1 25 11.3 16.1 0.00 0.00 0.00 65 1015.2
20260507000723 1 19 12.9 17.7 0.00 0.00 0.00 67 1015.1
20260506234723 1 21 9.7 16.1 0.00 0.00 0.00 70 1015.1
20260506232722 1 15 11.3 14.5 0.00 0.00 0.00 69 1015.0
20260506230724 1 19 9.7 14.5 0.00 0.00 0.00 74 1015.1
20260506224722 1 9 9.7 12.9 0.00 0.00 0.00 77 1015.0
20260506222723 1 2 9.7 12.9 0.00 0.00 0.00 88 1014.9
20260506220723 2 355 11.3 14.5 0.00 0.00 0.00 89 1014.8
20260506214722 2 359 12.9 14.5 0.00 0.00 0.00 89 1014.7
20260506210722 2 313 4.8 6.4 0.00 0.00 0.00 85 1014.5
20260506204722 3 276 3.2 3.2 0.00 0.00 0.00 83 1014.4
20260506202722 3 216 3.2 6.4 0.00 0.00 0.00 81 1014.4
20260506200722 4 159 4.8 8.0 0.00 0.00 0.00 76 1014.4
20260506194722 5 266 3.2 6.4 0.00 0.00 0.00 77 1014.3
20260506192721 5 209 1.6 4.8 0.00 0.00 0.00 72 1014.2
20260506190722 6 176 4.8 6.4 0.00 0.00 0.00 70 1014.2
20260506184721 6 160 4.8 8.0 0.00 0.00 0.00 65 1014.1
20260506175050 9 207 12.9 17.7 0.00 0.00 0.00 42 1014.0
20260506170721 9 216 14.5 25.7 0.00 0.00 0.00 43 1013.8
20260506164720 9 209 17.7 24.1 0.00 0.00 0.00 42 1013.8
20260506162721 9 206 19.3 27.4 0.00 0.00 0.00 42 1013.7
20260506160721 10 207 17.7 29.0 0.00 0.00 0.00 40 1013.8
20260506154722 10 215 19.3 27.4 0.00 0.00 0.00 42 1013.8
20260506152721 10 215 19.3 32.2 0.00 0.00 0.00 42 1013.8
20260506150721 10 216 20.9 33.8 0.00 0.00 0.00 42 1013.8
20260506145048 10 204 22.5 33.8 0.00 0.00 0.00 41 1013.9
20260506142720 10 203 24.1 33.8 0.00 0.00 0.00 39 1014.0
20260506140720 11 228 16.1 22.5 0.00 0.00 0.00 36 1013.9
20260506134720 11 209 19.3 32.2 0.00 0.00 0.00 38 1013.9
20260506132720 10 208 25.7 33.8 0.00 0.00 0.00 38 1013.9
20260506130720 10 227 25.7 35.4 0.00 0.00 0.00 37 1013.8
20260506124720 11 206 22.5 41.8 0.00 0.00 0.00 39 1013.8
20260506122720 11 203 29.0 40.2 0.00 0.00 0.00 39 1013.8
20260506120720 11 195 27.4 41.8 0.00 0.00 0.00 42 1013.6
20260506114721 10 187 17.7 33.8 0.00 0.00 0.00 50 1013.7
20260506112720 10 215 19.3 33.8 0.00 0.00 0.00 48 1013.7
20260506110721 10 302 9.7 19.3 0.00 0.00 0.00 28 1013.7
20260506104721 12 233 12.9 29.0 0.00 0.00 0.00 26 1013.5
20260506102721 10 272 12.9 25.7 0.00 0.00 0.00 28 1013.5
20260506100721 11 293 9.7 19.3 0.00 0.00 0.00 29 1013.4
20260506094721 10 314 14.5 24.1 0.00 0.00 0.00 30 1013.3
20260506092720 9 311 14.5 27.4 0.00 0.00 0.00 31 1013.3
20260506090720 10 272 14.5 25.7 0.00 0.00 0.00 32 1013.1
20260506084721 10 267 16.1 29.0 0.00 0.00 0.00 31 1013.0
20260506082721 9 255 11.3 20.9 0.00 0.00 0.00 33 1013.1
20260506080720 8 276 12.9 25.7 0.00 0.00 0.00 36 1013.0
20260506072721 8 286 17.7 27.4 0.00 0.00 0.00 44 1012.7
20260506070720 8 313 16.1 29.0 0.00 0.00 0.00 46 1012.6
20260506060720 6 290 16.1 22.5 0.00 0.00 0.00 58 1012.3